TimeCST,TemperatureF,Dew PointF,Humidity,Sea Level PressureIn,VisibilityMPH,Wind Direction,Wind SpeedMPH,Gust SpeedMPH,PrecipitationIn,Events,Conditions,WindDirDegrees,DateUTC
12:39 AM,66.2,64.4,94,30.01,10.0,East,4.6,-,N/A,,Mostly Cloudy,80,2012-12-04 06:39:00
12:53 AM,68.0,64.9,90,30.01,10.0,East,4.6,-,N/A,,Overcast,80,2012-12-04 06:53:00
1:53 AM,68.0,66.0,93,30.02,10.0,Calm,Calm,-,N/A,,Overcast,0,2012-12-04 07:53:00
2:24 AM,66.2,64.4,94,30.02,10.0,Calm,Calm,-,N/A,,Scattered Clouds,0,2012-12-04 08:24:00
2:51 AM,66.2,64.4,94,30.02,7.0,Calm,Calm,-,N/A,,Mostly Cloudy,0,2012-12-04 08:51:00
2:53 AM,66.0,64.9,96,30.02,7.0,Calm,Calm,-,N/A,,Mostly Cloudy,0,2012-12-04 08:53:00
3:10 AM,66.2,64.4,94,30.02,4.0,Calm,Calm,-,N/A,,Scattered Clouds,0,2012-12-04 09:10:00
3:16 AM,64.4,64.4,100,30.02,2.0,Calm,Calm,-,N/A,,Mostly Cloudy,0,2012-12-04 09:16:00
3:19 AM,64.4,64.4,100,30.02,1.2,Calm,Calm,-,N/A,,Mostly Cloudy,0,2012-12-04 09:19:00
3:23 AM,64.4,64.4,100,30.02,0.5,Calm,Calm,-,N/A,Fog,Fog,0,2012-12-04 09:23:00
3:33 AM,62.6,62.6,100,30.02,0.2,Calm,Calm,-,N/A,Fog,Fog,0,2012-12-04 09:33:00
3:48 AM,64.4,62.6,94,30.02,0.2,Calm,Calm,-,N/A,Fog,Fog,0,2012-12-04 09:48:00
3:53 AM,64.9,64.0,97,30.01,0.2,Calm,Calm,-,N/A,Fog,Fog,0,2012-12-04 09:53:00
4:04 AM,64.4,64.4,100,30.02,0.2,Calm,Calm,-,N/A,Fog,Fog,0,2012-12-04 10:04:00
4:46 AM,64.4,62.6,94,30.02,0.5,Calm,Calm,-,N/A,Fog,Fog,0,2012-12-04 10:46:00
4:53 AM,64.0,63.0,96,30.01,0.5,SE,3.5,-,N/A,Fog,Fog,140,2012-12-04 10:53:00
5:00 AM,64.4,62.6,94,30.02,0.2,SSE,3.5,-,N/A,Fog,Fog,150,2012-12-04 11:00:00
5:14 AM,64.4,62.6,94,30.02,0.5,Calm,Calm,-,N/A,Fog,Fog,0,2012-12-04 11:14:00
5:37 AM,64.4,62.6,94,30.02,0.5,SE,4.6,-,N/A,Fog,Fog,140,2012-12-04 11:37:00
5:43 AM,64.4,62.6,94,30.02,1.0,SE,3.5,-,N/A,,Mist,140,2012-12-04 11:43:00
5:53 AM,64.9,64.0,97,30.02,3.0,SE,3.5,-,N/A,,Overcast,130,2012-12-04 11:53:00
6:53 AM,68.0,66.9,96,30.04,8.0,Calm,Calm,-,N/A,,Overcast,0,2012-12-04 12:53:00
8:24 AM,69.8,68.0,94,30.09,2.5,Calm,Calm,-,N/A,,Overcast,0,2012-12-04 14:24:00
8:50 AM,69.8,68.0,94,30.10,1.2,SSE,3.5,-,N/A,,Overcast,150,2012-12-04 14:50:00
8:53 AM,70.0,68.0,93,30.10,1.0,SE,3.5,-,N/A,,Overcast,140,2012-12-04 14:53:00
9:12 AM,69.8,68.0,94,30.12,4.0,Calm,Calm,-,N/A,,Overcast,0,2012-12-04 15:12:00
9:34 AM,71.6,68.0,88,30.13,7.0,Calm,Calm,-,N/A,,Overcast,0,2012-12-04 15:34:00
9:53 AM,73.0,69.1,87,30.13,10.0,SE,4.6,-,N/A,,Overcast,130,2012-12-04 15:53:00
10:00 AM,75.2,68.0,78,30.13,10.0,Calm,Calm,-,N/A,,Mostly Cloudy,0,2012-12-04 16:00:00
10:46 AM,78.8,66.2,65,30.13,10.0,WSW,5.8,-,N/A,,Mostly Cloudy,250,2012-12-04 16:46:00
10:53 AM,78.1,66.9,68,30.12,10.0,SSW,8.1,-,N/A,,Scattered Clouds,210,2012-12-04 16:53:00
11:53 AM,82.0,64.9,56,30.10,10.0,South,9.2,-,N/A,,Clear,190,2012-12-04 17:53:00
12:53 PM,84.0,64.9,53,30.06,10.0,South,10.4,-,N/A,,Clear,170,2012-12-04 18:53:00
1:53 PM,86.0,62.1,44,30.04,10.0,South,11.5,-,N/A,,Clear,180,2012-12-04 19:53:00
2:53 PM,87.1,62.1,43,30.02,10.0,South,11.5,-,N/A,,Partly Cloudy,190,2012-12-04 20:53:00
3:53 PM,86.0,61.0,43,30.02,10.0,South,3.5,-,N/A,,Scattered Clouds,180,2012-12-04 21:53:00
4:53 PM,82.9,64.9,54,30.04,10.0,North,11.5,-,N/A,,Mostly Cloudy,350,2012-12-04 22:53:00
5:53 PM,80.1,64.0,58,30.06,10.0,North,10.4,-,N/A,,Mostly Cloudy,360,2012-12-04 23:53:00
6:53 PM,79.0,64.9,62,30.09,10.0,North,12.7,-,N/A,,Overcast,350,2012-12-05 00:53:00
7:53 PM,77.0,64.9,66,30.13,10.0,NNE,9.2,-,N/A,,Overcast,20,2012-12-05 01:53:00
8:53 PM,75.9,64.0,67,30.13,10.0,NNE,10.4,-,N/A,,Overcast,20,2012-12-05 02:53:00
9:53 PM,73.9,63.0,68,30.14,10.0,North,9.2,-,N/A,,Scattered Clouds,10,2012-12-05 03:53:00
10:53 PM,71.1,63.0,75,30.14,10.0,North,8.1,-,N/A,,Partly Cloudy,360,2012-12-05 04:53:00
11:53 PM,68.0,62.1,81,30.15,10.0,North,8.1,-,N/A,,Clear,10,2012-12-05 05:53:00